This demonstration page uses our WeatherBlox Daily Observations layout. Learn more.

Left ArrowRight Arrow

Hourly Observations for January 30, 2021

Temp ( °F °C ) Dew Point ( °F °C ) Humidity (%) Winds ( mph kmh ) Pressure ( in mb ) Visibility ( mi km ) Precip ( " mm )
6:30 am 06:30 Cloudy 28 -2 N/A N/A Calm 30.28 1025 10 16 N/A
6:45 am 06:45 Cloudy 28 -2 N/A N/A Calm 30.27 1025 10 16 N/A
7:45 am 07:45 Cloudy 28 -2 N/A N/A NE 9 15 30.25 1024 10 16 N/A
8:45 am 08:45 Cloudy 30 -1 N/A N/A ESE 9 15 30.25 1024 10 16 N/A
9:45 am 09:45 Cloudy 32 0 N/A N/A SE 10 17 30.21 1023 10 16 N/A
10:45 am 10:45 Cloudy 32 0 N/A N/A ESE 12 19 30.21 1023 10 16 N/A
11:45 am 11:45 Cloudy 34 1 N/A N/A ESE 12 19 30.20 1023 10 16 N/A
12:45 pm 12:45 Cloudy 36 2 N/A N/A ESE 14 22 30.17 1022 10 16 N/A
1:45 pm 13:45 Sunny 37 3 N/A N/A ESE 17 28 30.11 1020 10 16 N/A
2:55 pm 14:55 Cloudy 36 2 21 -6 56 56 ESE 12 19 30.08 1019 10 16 N/A
3:45 pm 15:45 Cloudy 36 2 21 -6 56 56 ESE 9 15 30.06 1018 10 16 N/A
4:22 pm 16:22 Cloudy with Light Snow 36 2 25 -4 65 65 S 12 19 30.11 1020 3 5 N/A
4:45 pm 16:45 Cloudy with Light Snow 32 0 19 -7 60 60 ESE 8 13 30.11 1019 2 3 N/A
5:09 pm 17:09 Cloudy with Light Snow 32 0 30 -1 93 93 ESE 12 19 30.11 1019 1 2 N/A
5:55 pm 17:55 Cloudy with Light Snow 30 -1 30 -1 100 100 ESE 14 22 30.07 1018 1 2 N/A
6:25 pm 18:25 Cloudy with Light Snow 32 0 30 -1 93 93 ESE 16 26 30.06 1018 1 2 N/A
6:55 pm 18:55 Cloudy with Light Snow 30 -1 30 -1 100 100 SE 13 20 30.07 1018 1 1 N/A
7:51 pm 19:51 Cloudy with Light Snow 32 0 30 -1 93 93 E 16 26 30.00 1016 2 3 N/A
8:45 pm 20:45 Cloudy 32 0 30 -1 93 93 ESE 14 22 29.97 1015 8 13 N/A
9:31 pm 21:31 Cloudy with Light Freezing Rain 32 0 30 -1 93 93 ESE 12 19 29.95 1014 8 13 N/A
9:51 pm 21:51 Cloudy with Light Freezing Rain 32 0 30 -1 93 93 ESE 16 26 29.94 1014 6 10 N/A

Powered by AerisWeather